| time (UTC) | temp F | wind direction | speed knots | gust knots | rain 1hr in | rain 24hr in | rain mn in | humidity % | barometer mb |
| 20260504214004 | 73 | 14 | 1.7 | 7.0 | 0.00 | 0.00 | 0.00 | 24 | 1011.8 |
| 20260504213004 | 74 | 78 | 0.0 | 7.8 | 0.00 | 0.00 | 0.00 | 23 | 1011.9 |
| 20260504212004 | 74 | 69 | 2.6 | 6.1 | 0.00 | 0.00 | 0.00 | 23 | 1011.7 |
| 20260504211004 | 74 | 109 | 5.2 | 6.1 | 0.00 | 0.00 | 0.00 | 22 | 1011.9 |
| 20260504210004 | 74 | 226 | 0.0 | 5.2 | 0.00 | 0.00 | 0.00 | 23 | 1011.9 |
| 20260504205004 | 75 | 115 | 3.5 | 6.1 | 0.00 | 0.00 | 0.00 | 23 | 1011.8 |
| 20260504204004 | 74 | 57 | 4.3 | 7.0 | 0.00 | 0.00 | 0.00 | 23 | 1011.9 |
| 20260504203005 | 74 | 146 | 3.5 | 6.1 | 0.00 | 0.00 | 0.00 | 24 | 1011.9 |
| 20260504201005 | 74 | 81 | 0.9 | 8.7 | 0.00 | 0.00 | 0.00 | 22 | 1012.1 |
| 20260504200004 | 74 | 270 | 3.5 | 7.0 | 0.00 | 0.00 | 0.00 | 22 | 1012.2 |
| 20260504195004 | 74 | 269 | 4.3 | 7.8 | 0.00 | 0.00 | 0.00 | 21 | 1012.4 |
| 20260504192005 | 73 | 322 | 3.5 | 8.7 | 0.00 | 0.00 | 0.00 | 25 | 1012.8 |
| 20260504190004 | 74 | 322 | 1.7 | 7.0 | 0.00 | 0.00 | 0.00 | 22 | 1013.2 |
| 20260504185005 | 74 | 298 | 0.9 | 9.6 | 0.00 | 0.00 | 0.00 | 21 | 1013.1 |
| 20260504184004 | 73 | 101 | 1.7 | 9.6 | 0.00 | 0.00 | 0.00 | 23 | 1013.2 |
| 20260504183004 | 73 | 355 | 2.6 | 5.2 | 0.00 | 0.00 | 0.00 | 22 | 1013.3 |
| 20260504182004 | 73 | 232 | 0.0 | 7.0 | 0.00 | 0.00 | 0.00 | 26 | 1013.5 |
| 20260504181004 | 73 | 62 | 2.6 | 7.8 | 0.00 | 0.00 | 0.00 | 22 | 1013.7 |
| 20260504180005 | 72 | 29 | 0.9 | 7.8 | 0.00 | 0.00 | 0.00 | 20 | 1013.6 |
| 20260504175004 | 72 | 142 | 2.6 | 8.7 | 0.00 | 0.00 | 0.00 | 21 | 1013.7 |
| 20260504173004 | 72 | 82 | 1.7 | 8.7 | 0.00 | 0.00 | 0.00 | 20 | 1014.1 |
| 20260504172004 | 71 | 304 | 4.3 | 7.0 | 0.00 | 0.00 | 0.00 | 22 | 1014.2 |
| 20260504171005 | 71 | 115 | 3.5 | 9.6 | 0.00 | 0.00 | 0.00 | 22 | 1014.5 |
| 20260504151004 | 65 | 330 | 0.0 | 7.8 | 0.00 | 0.00 | 0.00 | 32 | 1015.6 |
| 20260504082004 | 46 | 171 | 0.0 | 0.0 | 0.00 | 0.00 | 0.00 | 64 | 1017.0 |
| 20260504081005 | 46 | 171 | 0.0 | 0.9 | 0.00 | 0.00 | 0.00 | 64 | 1017.1 |
| 20260504050003 | 48 | 60 | 0.0 | 1.7 | 0.00 | 0.00 | 0.00 | 57 | 1017.0 |
| 20260504043004 | 48 | 80 | 0.0 | 0.0 | 0.00 | 0.00 | 0.00 | 54 | 1017.0 |
| 20260504042003 | 48 | 22 | 0.0 | 0.0 | 0.00 | 0.00 | 0.00 | 54 | 1016.8 |
| 20260504041004 | 48 | 22 | 0.0 | 0.0 | 0.00 | 0.00 | 0.00 | 54 | 1016.6 |
| 20260504040004 | 48 | 22 | 0.0 | 0.0 | 0.00 | 0.00 | 0.00 | 54 | 1016.6 |
| 20260504034004 | 49 | 288 | 0.0 | 0.0 | 0.00 | 0.00 | 0.00 | 51 | 1016.5 |
| 20260504033004 | 50 | 289 | 0.0 | 0.0 | 0.00 | 0.00 | 0.00 | 50 | 1016.3 |
| 20260504032004 | 50 | 289 | 0.0 | 0.0 | 0.00 | 0.00 | 0.00 | 48 | 1016.3 |
| 20260504031004 | 50 | 289 | 0.0 | 0.0 | 0.00 | 0.00 | 0.00 | 48 | 1016.2 |
| 20260504030004 | 51 | 262 | 0.0 | 0.9 | 0.00 | 0.00 | 0.00 | 47 | 1016.1 |
| 20260504024005 | 51 | 262 | 0.0 | 0.9 | 0.00 | 0.00 | 0.00 | 44 | 1016.1 |
| 20260504023004 | 51 | 262 | 0.0 | 0.9 | 0.00 | 0.00 | 0.00 | 42 | 1016.2 |
| 20260504022003 | 52 | 262 | 0.0 | 1.7 | 0.00 | 0.00 | 0.00 | 41 | 1016.1 |
| 20260504021004 | 52 | 262 | 0.0 | 1.7 | 0.00 | 0.00 | 0.00 | 41 | 1016.2 |
| 20260504020005 | 52 | 263 | 0.0 | 3.5 | 0.00 | 0.00 | 0.00 | 41 | 1016.2 |
| 20260504015004 | 52 | 254 | 1.7 | 2.6 | 0.00 | 0.00 | 0.00 | 41 | 1016.2 |
| 20260504014005 | 52 | 254 | 1.7 | 1.7 | 0.00 | 0.00 | 0.00 | 40 | 1016.0 |
| 20260504013005 | 53 | 254 | 0.0 | 0.9 | 0.00 | 0.00 | 0.00 | 41 | 1015.9 |
| 20260504012004 | 53 | 254 | 0.9 | 1.7 | 0.00 | 0.00 | 0.00 | 41 | 1015.9 |
| 20260504011004 | 54 | 254 | 1.7 | 1.7 | 0.00 | 0.00 | 0.00 | 41 | 1015.8 |
| 20260504010004 | 54 | 255 | 0.0 | 1.7 | 0.00 | 0.00 | 0.00 | 38 | 1015.7 |
| 20260504005004 | 54 | 260 | 0.0 | 0.0 | 0.00 | 0.00 | 0.00 | 38 | 1015.5 |
| 20260504004004 | 55 | 260 | 0.0 | 0.0 | 0.00 | 0.00 | 0.00 | 38 | 1015.5 |
| 20260504003005 | 56 | 260 | 0.0 | 0.0 | 0.00 | 0.00 | 0.00 | 36 | 1015.3 |
| 20260504002004 | 57 | 262 | 0.0 | 1.7 | 0.00 | 0.00 | 0.00 | 34 | 1015.2 |
| 20260504001004 | 57 | 261 | 0.0 | 0.9 | 0.00 | 0.00 | 0.00 | 32 | 1015.1 |
| 20260504000004 | 58 | 261 | 0.0 | 0.9 | 0.00 | 0.00 | 0.00 | 32 | 1015.0 |
| 20260503235005 | 59 | 262 | 0.9 | 3.5 | 0.00 | 0.00 | 0.00 | 29 | 1014.9 |
| 20260503233005 | 60 | 117 | 0.0 | 6.1 | 0.00 | 0.00 | 0.00 | 25 | 1015.0 |
| 20260503232004 | 60 | 248 | 0.0 | 6.1 | 0.00 | 0.00 | 0.00 | 23 | 1015.0 |
| 20260503231005 | 60 | 251 | 1.7 | 4.3 | 0.00 | 0.00 | 0.00 | 23 | 1014.9 |
| 20260503230003 | 60 | 219 | 0.0 | 3.5 | 0.00 | 0.00 | 0.00 | 22 | 1014.7 |
| 20260503225003 | 60 | 5 | 0.0 | 7.8 | 0.00 | 0.00 | 0.00 | 23 | 1014.7 |
| 20260503224004 | 60 | 355 | 0.0 | 8.7 | 0.00 | 0.00 | 0.00 | 21 | 1014.8 |
| 20260503223003 | 61 | 263 | 0.0 | 7.8 | 0.00 | 0.00 | 0.00 | 21 | 1014.9 |
| 20260503222004 | 61 | 217 | 3.5 | 5.2 | 0.00 | 0.00 | 0.00 | 21 | 1014.8 |
| 20260503221004 | 61 | 241 | 5.2 | 7.8 | 0.00 | 0.00 | 0.00 | 20 | 1014.8 |
| 20260503220005 | 61 | 319 | 3.5 | 7.8 | 0.00 | 0.00 | 0.00 | 22 | 1014.8 |
| 20260503215005 | 61 | 248 | 0.9 | 6.1 | 0.00 | 0.00 | 0.00 | 21 | 1014.9 |